This is the latest recevied weather packets stored in our database for station/object VA2RBQ-7. If no packets are shown the sender has not sent any weather packets the latest 10 day(s).
| Time | Temp. | Humidity | Pressure | Rain* | Wind** | Luminosity | Snow |
|---|---|---|---|---|---|---|---|
| 1788115477 | 8.33° C | 66% | 1013.9 hPa | 0.25 mm | - | - | - |
| 1788115174 | 8.89° C | 67% | 1014 hPa | 0.25 mm | - | - | - |
| 1788114872 | 9.44° C | 67% | 1014 hPa | 0.25 mm | - | - | - |
| 1788114569 | 9.44° C | 67% | 1014 hPa | 0.25 mm | - | - | - |
| 1788114266 | 9.44° C | 67% | 1014.1 hPa | 0.25 mm | - | - | - |
| 1788113964 | 10° C | 67% | 1014 hPa | 0.25 mm | - | - | - |
| 1788113661 | 8.89° C | 67% | 1014.2 hPa | 0.25 mm | - | - | - |
| 1788113359 | 8.89° C | 67% | 1014.1 hPa | 0.25 mm | - | - | - |
| 1788113067 | 8.33° C | 67% | 1014.1 hPa | 0.25 mm | - | - | - |
| 1788112753 | 8.89° C | 68% | 1014.2 hPa | 0.25 mm | - | - | - |
| 1788112451 | 10.56° C | 68% | 1014.2 hPa | 0.25 mm | - | - | - |
| 1788112148 | 10° C | 68% | 1014.1 hPa | 0.25 mm | - | - | - |
| 1788111846 | 9.44° C | 67% | 1014.1 hPa | 0.25 mm | - | - | - |
| 1788111543 | 8.33° C | 67% | 1014.2 hPa | 0.25 mm | - | - | - |
| 1788111240 | 7.78° C | 67% | 1014.1 hPa | 0.25 mm | - | - | - |
| 1788110938 | 8.33° C | 68% | 1014.1 hPa | 0.25 mm | - | - | - |
| 1788110635 | 8.33° C | 68% | 1014.2 hPa | 0.25 mm | - | - | - |
| 1788110333 | 10° C | 68% | 1014.2 hPa | 0.25 mm | - | - | - |
| 1788110030 | 9.44° C | 67% | 1014.2 hPa | 0.25 mm | - | - | - |
| 1788109727 | 7.78° C | 67% | 1014.2 hPa | 0.25 mm | - | - | - |
| 1788109425 | 7.78° C | 67% | 1014.3 hPa | 0.25 mm | - | - | - |
| 1788109122 | 8.33° C | 68% | 1014.3 hPa | 0.25 mm | - | - | - |
| 1788108820 | 8.33° C | 68% | 1014.2 hPa | 0.25 mm | - | - | - |
| 1788108517 | 8.33° C | 67% | 1014.2 hPa | 0.25 mm | - | - | - |
| 1788108214 | 8.33° C | 67% | 1014.3 hPa | 0.25 mm | - | - | - |
* Rain since midnight (hover to see other rain measurements)
** Current wind speed in m/s (hover to see current wind gust speed)